Home > Weather > Balurghat > Past weeks

Flag for India Past Weather in Balurghat, West Bengal, India — Yesterday and Last 2 Weeks

Now
95 °F

Broken clouds.


Feels Like: 116 °F
Forecast: 80 / 93 °F
Wind: 2 mph from North

Location: Lucknow / Amausi

Current Time: Aug 29, 2016 at 2:51:11 PM

Latest Report: Aug 29, 2016 at 2:00 PM


Visibility: 3 mi

Pressure: 29.56 "Hg

Humidity: 63%

Dew Point: 81 °F

Location of BalurghatLocation

Past Weather in Balurghat — Graph

°F

Balurghat Temperature Yesterday

Maximum temperature yesterday: 99 °F (at 1:30 PM)
Minimum temperature yesterday: 84 °F (at 3:00 AM)
Average temperature yesterday: 92 °F

High & Low Weather Summary for the Past Weeks

 TemperatureHumidityPressure
High99 °F (Aug 25, 12:00 PM)100% (Aug 14, 8:00 PM)29.77 "Hg (Aug 14, 8:00 PM)
Low77 °F (Aug 17, 12:00 AM)60% (Aug 28, 3:00 PM)29.36 "Hg (Aug 16, 4:00 PM)
Average86 °F88%29.57 "Hg
* Reported Aug 14 1:30 PM — Aug 29 1:30 PM, Balurghat, Weather by CustomWeather, © 2016

Note: Actual official high and low records may vary slightly from our data, if they occured in-between our weather recording intervals... More about our weather records

Advertising

Balurghat Weather History for the Previous 24 Hours

Scroll right to see more
 ConditionsComfort  
Time TempWeatherWind HumidityBarometerVisibility
1:30 PM
Mon, Aug 29
95 °FBroken clouds.No wind63%29.59 "Hg3 mi
1:00 PM95 °FBroken clouds.No wind63%29.59 "Hg3 mi
12:30 PM95 °FBroken clouds.No wind63%29.62 "Hg3 mi
12:00 PM95 °FBroken clouds.No wind63%29.62 "Hg3 mi
11:30 AM95 °FBroken clouds.2 mph63%29.65 "Hg3 mi
10:30 AM95 °FScattered clouds.5 mph63%29.65 "Hg3 mi
10:00 AM93 °FScattered clouds.No wind67%29.65 "Hg3 mi
9:30 AM91 °FScattered clouds.No wind71%29.65 "Hg3 mi
9:00 AM90 °FHaze.No wind75%29.65 "Hg3 mi
8:30 AM90 °FHaze.No wind75%29.65 "Hg2 mi
8:00 AM88 °FHaze.No wind84%29.65 "Hg2 mi
7:30 AM88 °FHaze.No wind84%29.65 "Hg2 mi
7:00 AM86 °FHaze.No wind84%29.65 "Hg2 mi
6:30 AM86 °FHaze.No wind84%29.62 "Hg2 mi
6:00 AM84 °FHaze.No wind89%29.62 "Hg2 mi
5:30 AM84 °FHaze.No wind89%29.62 "Hg2 mi
5:00 AM84 °FHaze.No wind89%29.62 "Hg2 mi
4:00 AM84 °FHaze.No wind89%29.62 "Hg2 mi
3:00 AM84 °FHaze.No wind89%29.62 "Hg2 mi
2:00 AM84 °FHaze.No wind89%29.65 "Hg2 mi
1:00 AM86 °FHaze.No wind84%29.65 "Hg2 mi
12:00 AM86 °FHaze.No wind84%29.68 "Hg2 mi
11:00 PM
Sun, Aug 28
88 °FHaze.No wind79%29.68 "Hg2 mi
8:30 PM90 °FPassing clouds.No wind75%29.65 "Hg2 mi
8:00 PM90 °FPassing clouds.No wind71%29.65 "Hg2 mi
7:00 PM91 °FPassing clouds.2 mph67%29.62 "Hg2 mi
6:30 PM91 °FScattered clouds.No wind67%29.62 "Hg3 mi
6:00 PM93 °FScattered clouds.No wind67%29.62 "Hg3 mi
5:30 PM93 °FScattered clouds.2 mph63%29.62 "Hg3 mi
5:00 PM97 °FScattered clouds.2 mph63%29.62 "Hg3 mi
4:30 PM99 °FScattered clouds.2 mph60%29.62 "Hg3 mi
4:00 PM99 °FScattered clouds.No wind64%29.62 "Hg3 mi
3:30 PM99 °FScattered clouds.2 mph64%29.65 "Hg3 mi
3:00 PM99 °FScattered clouds.2 mph60%29.65 "Hg3 mi
2:30 PM99 °FScattered clouds.2 mph64%29.65 "Hg3 mi
2:00 PM99 °FScattered clouds.2 mph64%29.68 "Hg3 mi
Weather by CustomWeather, © 2016

See weather overviewHow to use our weather pages